Retour au catalogue

SL-8 R/B

ActifPO
NORAD 8597·ROCKET BODY·🇷🇺 Russia

Lancé Jan 20, 1976 depuis Plesetsk Cosmodrome

Loading…

Prochains Passages (prochaines 24 heures)

TLE

FraisSource: Space-Track

Époque: Sep 14, 2026, 00:31 UTC

1 08597U 76005B   26257.02200131  .00000095  00000-0  82202-4 0  9990
2 08597  82.9681  93.6377 0025656 156.1222 357.5848 13.75515573540813

Suivez SL-8 R/B en temps réel avec AllMySat

Download on the App Store